Hutchinson, MN

12:23 PM CST on November 18, 2017 (GMT -0600)
Hutchinson Municipal-Butler

Weather History for KHCD - October, 2011

Change the Weather History Date:

Monday, October 24, 2011

  Actual Average Record
Temperature  
Mean Temperature 46 °F -  
Max Temperature 60 °F 57 °F 77 °F (1989)
Min Temperature 33 °F 35 °F 17 °F (1999)
Degree Days  
Heating Degree Days 18    
Moisture  
Dew Point 39 °F    
Average Humidity 79    
Maximum Humidity 95    
Minimum Humidity 52    
Precipitation  
Precipitation 0.00 in - - ()
Sea Level Pressure  
Sea Level Pressure 29.98 in    
Wind  
Wind Speed 2 mph (WSW)    
Max Wind Speed 10 mph    
Max Gust Speed -    
Visibility 10 miles    
Events      
Averages and records for this station are not official NWS values.
T = Trace of Precipitation, MM = Missing Value Source: NWS Daily Summary

Daily Weather History Graph

Daily Weather History Graph

Search for Another Location

Airport or City:

Trip Planner

Search our weather history database for the weather conditions in past years. The results will help you decide how hot, cold, wet, or windy it might be!

Date:

Astronomy

Oct. 24, 2011 Rise Set
Actual Time 7:44 AM CDT 6:18 PM CDT
Civil Twilight 7:14 AM CDT 6:48 PM CDT
Nautical Twilight 6:40 AM CDT 7:22 PM CDT
Astronomical Twilight 6:06 AM CDT 7:56 PM CDT
Moon 4:59 AM CDT (10/24) 4:47 PM CDT (10/24)
Length of Visible Light 11h 33m
Length of Day
10h 33m
Waning Crescent, 7% of the Moon is Illuminated
Oct 24
Waning Crescent
Oct 26
New
Nov 2
First Quarter
Nov 10
Full
Nov 18
Last Quarter

Hourly Weather History & Observations

Time (CDT) Temp. Windchill Dew Point Humidity Pressure Visibility Wind Dir Wind Speed Gust Speed Precip Events Conditions
12:12 AM 34.3 °F - 32.9 °F 94% 29.95 in 10.0 mi Calm Calm - N/A   Clear
12:33 AM 34.3 °F - 32.9 °F 94% 29.95 in 10.0 mi Calm Calm - N/A   Clear
12:52 AM 34.9 °F - 33.4 °F 94% 29.95 in 10.0 mi Calm Calm - N/A   Clear
1:13 AM 34.3 °F - 32.9 °F 94% 29.95 in 10.0 mi Calm Calm - N/A   Clear
1:33 AM 34.3 °F - 32.9 °F 94% 29.95 in 10.0 mi Calm Calm - N/A   Clear
1:53 AM 34.3 °F 31.4 °F 32.9 °F 94% 29.96 in 10.0 mi WSW 3.5 mph - N/A   Clear
2:12 AM 34.3 °F - 32.9 °F 94% 29.96 in 10.0 mi Calm Calm - N/A   Clear
2:33 AM 34.0 °F - 32.5 °F 94% 29.96 in 10.0 mi Calm Calm - N/A   Clear
2:53 AM 34.3 °F 31.4 °F 32.9 °F 94% 29.96 in 10.0 mi WSW 3.5 mph - N/A   Clear
3:13 AM 34.3 °F 30.2 °F 32.9 °F 94% 29.97 in 10.0 mi WSW 4.6 mph - N/A   Clear
3:32 AM 34.3 °F - 33.1 °F 95% 29.97 in 10.0 mi Calm Calm - N/A   Clear
3:53 AM 34.3 °F 31.4 °F 32.9 °F 94% 29.97 in 10.0 mi WSW 3.5 mph - N/A   Clear
4:13 AM 34.7 °F 31.8 °F 33.3 °F 94% 29.97 in 10.0 mi West 3.5 mph - N/A   Clear
4:32 AM 34.7 °F 30.6 °F 33.1 °F 94% 29.98 in 10.0 mi West 4.6 mph - N/A   Clear
4:53 AM 34.3 °F 31.4 °F 32.9 °F 94% 29.98 in 10.0 mi WSW 3.5 mph - N/A   Clear
5:13 AM 34.3 °F 31.4 °F 32.5 °F 93% 29.98 in 10.0 mi WSW 3.5 mph - N/A   Clear
5:32 AM 33.6 °F 29.4 °F 32.4 °F 95% 29.98 in 10.0 mi WSW 4.6 mph - N/A   Clear
5:53 AM 34.3 °F 30.2 °F 32.9 °F 94% 29.99 in 10.0 mi WSW 4.6 mph - N/A   Clear
6:13 AM 36.0 °F 33.3 °F 34.5 °F 94% 30.00 in 10.0 mi SW 3.5 mph - N/A   Clear
6:33 AM 34.3 °F - 32.7 °F 94% 30.00 in 10.0 mi Calm Calm - N/A   Scattered Clouds
6:52 AM 34.7 °F - 33.3 °F 94% 30.00 in 10.0 mi Calm Calm - N/A   Mostly Cloudy
7:13 AM 34.3 °F 31.4 °F 32.9 °F 94% 30.01 in 10.0 mi WSW 3.5 mph - N/A   Mostly Cloudy
7:32 AM 35.1 °F - 33.6 °F 94% 30.00 in 10.0 mi Calm Calm - N/A   Scattered Clouds
7:53 AM 34.3 °F - 32.9 °F 94% 30.00 in 7.0 mi Calm Calm - N/A   Clear
8:12 AM 35.4 °F - 34.0 °F 94% 30.01 in 10.0 mi Calm Calm - N/A   Clear
8:33 AM 39.2 °F - 37.6 °F 94% 30.01 in 10.0 mi Calm Calm - N/A   Clear
8:52 AM 38.5 °F - 36.7 °F 93% 30.01 in 10.0 mi Calm Calm - N/A   Clear
9:13 AM 40.6 °F - 38.7 °F 93% 30.01 in 10.0 mi Calm Calm - N/A   Clear
9:32 AM 44.1 °F - 40.3 °F 87% 30.01 in 10.0 mi Calm Calm - N/A   Clear
9:53 AM 48.9 °F - 43.3 °F 81% 30.00 in 10.0 mi Calm Calm - N/A   Clear
10:12 AM 51.4 °F - 43.7 °F 75% 30.01 in 10.0 mi SW 4.6 mph - N/A   Clear
10:33 AM 52.0 °F - 42.1 °F 69% 30.01 in 10.0 mi South 4.6 mph - N/A   Clear
10:52 AM 54.5 °F - 43.7 °F 67% 30.00 in 10.0 mi Calm Calm - N/A   Clear
11:13 AM 54.5 °F - 43.7 °F 67% 30.00 in 10.0 mi SSW 4.6 mph - N/A   Clear
11:32 AM 54.5 °F - 43.3 °F 66% 30.01 in 10.0 mi WSW 3.5 mph - N/A   Clear
11:53 AM 54.5 °F - 42.8 °F 65% 30.01 in 10.0 mi SW 3.5 mph - N/A   Clear
12:12 PM 56.5 °F - 43.7 °F 62% 30.01 in 10.0 mi Calm Calm - N/A   Clear
12:33 PM 58.8 °F - 44.1 °F 58% 30.00 in 10.0 mi Calm Calm - N/A   Clear
1:33 PM 59.5 °F - 43.3 °F 55% 29.98 in 10.0 mi WSW 3.5 mph - N/A   Clear
1:53 PM 59.5 °F - 43.3 °F 55% 29.98 in 10.0 mi Calm Calm - N/A   Scattered Clouds
2:13 PM 59.5 °F - 43.7 °F 56% 29.98 in 10.0 mi Calm Calm - N/A   Mostly Cloudy
2:33 PM 59.5 °F - 43.0 °F 54% 29.98 in 7.0 mi Calm Calm - N/A   Mostly Cloudy
2:52 PM 59.5 °F - 43.5 °F 55% 29.98 in 10.0 mi Calm Calm - N/A   Mostly Cloudy
3:12 PM 59.5 °F - 42.8 °F 54% 29.97 in 10.0 mi SW 3.5 mph - N/A   Scattered Clouds
3:33 PM 59.7 °F - 42.3 °F 52% 29.97 in 10.0 mi Calm Calm - N/A   Scattered Clouds
3:53 PM 59.5 °F - 42.1 °F 52% 29.97 in 10.0 mi West 3.5 mph - N/A   Overcast
4:13 PM 60.1 °F - 42.8 °F 53% 29.97 in 10.0 mi SW 4.6 mph - N/A   Overcast
4:33 PM 59.5 °F - 42.8 °F 54% 29.97 in 10.0 mi SW 4.6 mph - N/A   Overcast
4:52 PM 59.5 °F - 43.3 °F 55% 29.97 in 10.0 mi WSW 4.6 mph - N/A   Overcast
5:13 PM 59.5 °F - 44.4 °F 57% 29.97 in 10.0 mi WSW 3.5 mph - N/A   Overcast
5:33 PM 57.6 °F - 43.2 °F 59% 29.97 in 10.0 mi Calm Calm - N/A   Overcast
5:53 PM 57.2 °F - 43.7 °F 61% 29.96 in 10.0 mi Calm Calm - N/A   Overcast
6:13 PM 55.9 °F - 43.9 °F 64% 29.96 in 10.0 mi Calm Calm - N/A   Mostly Cloudy
6:32 PM 54.5 °F - 43.7 °F 67% 29.96 in 10.0 mi Calm Calm - N/A   Clear
6:53 PM 53.6 °F - 44.6 °F 72% 29.96 in 10.0 mi Calm Calm - N/A   Clear
7:13 PM 50.0 °F - 42.4 °F 75% 29.97 in 10.0 mi Calm Calm - N/A   Clear
7:33 PM 49.5 °F - 43.0 °F 78% 29.98 in 10.0 mi Calm Calm - N/A   Clear
7:53 PM 46.9 °F - 41.9 °F 83% 29.98 in 10.0 mi Calm Calm - N/A   Clear
8:12 PM 46.6 °F - 42.4 °F 85% 29.98 in 10.0 mi Calm Calm - N/A   Clear
8:33 PM 43.2 °F - 39.0 °F 85% 29.98 in 10.0 mi Calm Calm - N/A   Clear
8:53 PM 42.8 °F - 38.7 °F 85% 29.98 in 10.0 mi Calm Calm - N/A   Clear
9:13 PM 41.0 °F - 37.8 °F 88% 29.98 in 10.0 mi Calm Calm - N/A   Clear
9:33 PM 43.3 °F 40.7 °F 41.0 °F 91% 29.98 in 10.0 mi NNE 4.6 mph - N/A   Clear
10:33 PM 44.6 °F 40.7 °F 40.3 °F 85% 29.97 in 10.0 mi NE 6.9 mph - N/A   Clear
10:53 PM 46.9 °F - 43.0 °F 86% 29.96 in 10.0 mi ENE 8.1 mph - N/A   Clear
11:12 PM 46.9 °F - 42.1 °F 83% 29.95 in 10.0 mi NE 10.4 mph - N/A   Clear
11:33 PM 49.5 °F - 44.2 °F 82% 29.95 in 10.0 mi ENE 9.2 mph - N/A   Clear
11:52 PM 49.5 °F - 43.5 °F 80% 29.95 in 10.0 mi ENE 6.9 mph - N/A   Clear